Wind_Speed
18 18 18 19 19 19 22 24 26 29 30 28 26 26 28 29 31 34 39 35 41 49 52 48 43 42 31 26 25 30 23 30 26 26 28 33 28 36 38 43 39 38 33 27 44 37 32 38 25 36 30 19 18 14
17 17 17 16 18 20 23 24 26 23 21 22 22 21 22 26 30 35 43 42 41 48 50 42 40 38 39 38 40 32 32 25 13 19 23 25 34 32 32 39 34 47 43 46 34 23 38 26 26 26 28 22 20 24
17 16 14 17 19 21 22 22 20 19 20 18 16 18 20 20 21 29 38 43 45 49 51 49 50 37 33 32 34 41 43 42 39 37 36 35 30 26 31 41 38 41 35 44 44 60 48 35 22 28 29 33 27 22
16 13 15 17 20 20 19 18 16 17 16 16 19 19 20 21 22 25 29 37 44 47 50 53 40 39 34 36 39 38 36 34 38 35 34 40 45 40 41 41 42 39 27 32 38 51 51 39 38 40 19 25 26 24
13 13 15 17 18 18 18 16 15 13 14 17 17 18 19 21 21 22 26 31 37 43 27 23 33 29 29 31 34 32 32 36 37 35 44 39 44 42 48 48 51 42 40 53 58 52 43 42 27 32 30 31 23 20
12 14 14 16 16 15 15 14 15 14 14 16 19 20 22 25 23 25 27 33 35 35 41 48 46 43 38 31 20 18 25 30 35 41 44 44 39 39 45 42 58 43 37 38 52 48 46 42 32 27 31 24 28 28
12 14 15 15 13 12 11 11 11 12 14 16 17 20 20 20 23 30 29 31 31 31 36 39 38 37 33 28 29 31 29 28 35 39 44 46 41 33 42 55 56 45 36 40 39 45 43 20 28 30 29 28 32 33
13 14 15 13 11 9 8 7 6 8 13 13 11 13 14 13 18 32 34 29 23 21 33 29 23 23 20 19 19 18 26 27 33 40 42 45 42 43 59 60 55 33 36 34 26 22 33 26 24 28 29 26 25 30
13 14 12 10 8 6 6 5 3 8 7 4 4 8 8 11 7 5 12 17 16 16 29 26 27 19 17 22 23 24 22 32 32 36 42 44 47 41 49 52 46 36 37 45 5 16 19 21 21 22 26 26 27 25
14 12 10 7 6 6 5 6 2 7 5 4 1 4 4 1 7 14 8 11 18 26 30 32 25 25 28 23 18 26 23 29 25 44 40 38 53 49 48 47 40 43 38 14 24 20 18 18 21 22 21 27 27 26
14 12 10 9 8 8 5 5 3 6 5 4 7 6 3 10 13 8 4 12 11 13 23 27 25 23 22 21 21 17 9 15 14 23 22 24 45 40 33 34 36 35 6 20 16 15 14 18 17 21 21 22 24 23
16 15 13 12 9 7 8 7 1 3 2 8 9 8 10 9 6 6 6 7 9 10 13 14 15 18 23 19 13 12 17 8 9 9 15 17 22 25 23 22 17 17 17 16 16 16 19 21 17 16 16 21 18 12
16 17 16 15 10 10 11 10 4 3 3 5 11 12 6 5 7 7 8 8 7 12 15 13 14 13 18 20 11 7 7 9 5 7 6 13 18 17 19 20 22 22 24 21 16 20 21 23 22 21 20 15 14 13
16 16 17 15 11 10 12 10 4 4 8 7 6 9 8 6 7 9 11 15 19 20 20 17 8 5 10 8 8 5 7 6 5 5 4 14 13 15 17 14 15 21 21 20 20 20 21 20 19 18 16 15 13 12
17 17 15 15 13 12 13 10 4 4 9 8 6 6 9 14 13 14 15 13 9 9 4 3 8 7 5 5 5 5 4 4 5 6 14 11 9 12 11 10 10 16 18 19 19 16 15 17 17 17 17 14 12 10
17 18 17 15 14 14 13 11 7 6 9 9 8 7 8 5 7 8 6 3 2 4 3 3 1 1 3 3 3 3 4 3 5 11 7 3 7 10 14 20 21 21 21 21 21 19 17 16 13 11 12 13 14 13
19 18 19 17 15 15 15 11 9 9 7 7 8 8 9 8 7 7 5 5 5 2 1 1 2 3 3 3 3 4 6 10 6 4 7 11 14 19 18 17 19 22 19 16 14 13 12 13 13 13 12 13 13 10
21 20 19 20 18 16 15 14 12 8 9 10 9 9 13 14 10 8 7 5 0 2 1 4 4 3 3 4 4 6 4 3 4 15 20 21 17 17 18 19 19 15 12 11 11 11 12 12 13 14 13 11 10 7
19 19 19 18 19 17 16 15 14 7 10 12 10 9 11 11 11 9 8 6 5 2 2 1 2 1 0 2 2 4 4 9 17 21 18 17 15 15 15 15 14 13 10 8 8 9 11 12 12 12 11 9 6 3
17 20 20 19 19 19 15 11 15 12 9 14 13 11 9 8 8 7 6 5 5 5 3 3 4 5 5 3 2 6 9 12 16 16 17 17 17 15 13 10 8 6 5 5 6 7 9 12 13 12 9 6 5 4
14 19 20 20 20 20 14 11 15 12 15 16 16 13 11 9 9 8 7 6 6 7 6 7 7 6 5 5 5 9 10 10 10 9 9 9 10 9 8 7 5 4 4 4 5 8 11 11 11 10 7 6 6 5
13 17 20 20 20 19 19 14 13 14 13 13 18 16 15 13 12 12 10 10 10 9 9 10 9 8 8 7 7 9 11 12 11 9 8 7 6 5 6 6 6 6 6 6 8 11 13 13 13 10 8 7 7 6
14 17 20 20 18 17 14 18 15 14 10 11 12 12 14 13 13 11 10 11 12 10 10 12 12 11 12 11 10 10 10 9 9 9 10 10 10 10 10 10 10 9 9 10 12 14 14 13 12 10 9 8 7 5
15 19 20 15 15 13 15 20 21 15 13 11 11 12 10 15 13 13 13 14 14 13 15 15 15 16 15 15 15 14 12 11 9 7 8 8 8 7 8 9 10 10 10 10 11 13 15 14 13 11 10 9 7 5
18 16 11 15 16 17 18 20 21 17 21 17 14 12 11 12 12 14 14 16 15 16 16 18 20 20 20 21 21 19 17 16 14 11 9 10 10 8 7 7 7 9 8 10 11 13 13 13 12 12 11 9 7 5
15 16 13 14 20 18 19 20 21 23 23 22 15 14 15 14 11 7 11 16 15 15 16 16 16 19 23 25 25 24 23 22 20 18 15 13 12 10 9 8 7 9 11 10 10 11 12 12 12 11 10 8 6 5
13 11 20 19 22 21 21 22 21 22 22 16 23 20 15 10 9 14 12 14 12 11 10 12 14 16 19 21 24 26 25 25 24 21 19 17 15 13 12 10 11 10 10 10 8 9 11 12 11 10 9 8 7 6
15 17 18 22 22 22 20 20 20 18 21 17 16 16 9 9 14 9 13 13 13 11 10 10 11 13 15 16 17 19 20 20 21 22 22 21 19 16 14 13 13 13 12 11 9 9 11 12 12 11 10 9 9 7
19 18 21 20 22 22 19 18 19 21 19 18 17 21 19 18 11 11 12 12 11 11 9 7 6 8 10 13 15 17 19 20 18 16 15 16 16 16 14 12 12 11 10 9 9 10 12 12 12 11 11 11 9 8
20 21 19 20 21 21 23 21 20 18 18 20 18 18 17 16 14 13 13 12 12 10 8 8 6 5 8 8 10 13 15 16 19 18 14 12 12 11 12 12 12 12 11 10 9 10 11 12 11 11 11 11 10 9
23 19 20 20 21 23 19 18 16 15 17 17 18 18 15 15 16 16 15 14 13 10 9 7 7 7 8 10 11 13 14 15 16 20 20 19 19 18 15 15 14 13 12 11 11 11 12 13 12 12 12 12 11 10
23 23 19 17 21 19 19 17 17 18 18 18 18 17 16 15 17 18 17 16 14 11 10 10 10 9 9 10 9 11 12 13 16 20 21 20 18 18 17 16 15 14 14 14 13 13 13 13 13 12 13 12 12 12
26 23 21 19 17 19 20 19 19 19 17 18 18 18 19 19 19 19 18 17 15 13 11 11 10 11 11 11 11 14 13 11 15 19 21 20 18 17 16 16 16 15 14 14 14 14 14 14 13 13 13 14 13 13
Wind_Direction
219 227 236 244 253 263 266 264 264 267 265 264 265 261 257 252 248 249 255 249 247 251 257 259 258 247 245 242 253 256 259 248 246 244 246 254 258 260 261 259 259 255 257 256 236 229 248 247 257 243 236 255 251 233
228 235 242 254 263 266 267 271 268 260 259 263 262 263 267 263 249 243 250 252 249 249 255 260 264 259 250 247 250 249 250 240 241 228 242 261 260 260 257 264 261 251 246 253 256 233 237 243 258 251 240 234 236 238
234 238 249 259 267 272 275 265 254 258 261 260 262 258 259 263 261 249 251 250 246 248 255 255 253 262 262 259 262 256 256 256 254 255 266 271 268 262 260 259 268 259 255 262 272 257 256 230 234 236 230 232 231 236
237 247 254 263 269 273 264 251 254 257 263 269 259 256 262 262 261 255 245 242 242 242 247 257 259 258 267 265 259 255 266 263 256 251 253 258 261 257 261 267 265 258 263 277 266 251 257 241 254 238 241 229 228 232
241 249 258 267 273 268 253 249 252 260 266 264 263 262 266 267 265 261 244 240 237 233 245 268 251 271 264 267 265 257 254 256 252 244 250 255 255 267 268 264 261 262 271 272 267 260 264 251 232 237 230 239 195 213
239 249 262 269 268 258 249 249 255 263 274 272 268 274 275 270 269 261 250 239 238 237 243 252 262 266 268 268 252 254 251 251 248 246 251 256 259 255 276 269 267 270 266 261 269 245 254 258 226 211 207 195 203 217
236 247 263 270 264 251 251 251 262 270 271 277 282 287 284 279 260 247 241 248 242 237 231 246 257 263 267 261 265 257 256 258 243 244 245 253 256 257 263 265 273 278 270 273 262 256 253 211 185 207 220 220 228 230
235 246 260 262 254 245 241 250 266 283 286 285 284 296 309 301 283 245 231 240 250 232 226 233 251 254 258 262 260 262 244 245 237 238 248 253 261 261 260 263 272 271 276 274 241 242 220 208 196 211 217 209 209 215
231 243 255 255 242 231 218 210 242 314 299 240 318 329 354 332 8 105 186 223 243 232 220 231 236 257 254 254 259 255 246 233 242 241 249 252 252 246 256 264 268 277 275 292 242 151 170 179 195 209 209 216 229 238
226 239 236 232 189 178 175 189 328 332 229 193 280 286 308 133 80 147 177 176 205 215 228 237 241 244 246 249 253 241 242 231 233 244 247 241 256 262 261 265 268 279 291 210 164 178 206 203 207 205 222 238 237 254
221 218 222 203 190 181 193 197 8 8 186 209 261 259 165 183 148 159 211 188 208 238 245 257 251 240 248 246 253 266 246 219 234 242 218 248 257 263 268 269 268 277 200 191 190 192 192 209 228 242 243 241 240 227
216 212 211 205 199 193 196 193 323 46 224 229 235 191 166 154 193 220 216 220 224 235 249 249 246 234 239 246 249 251 224 218 249 235 212 247 264 265 270 277 272 248 264 260 223 222 223 225 233 235 220 203 188 169
211 209 210 219 231 213 207 208 248 320 196 174 177 187 189 233 233 228 224 231 231 257 271 282 259 248 244 244 234 256 227 227 245 222 252 256 257 261 246 246 253 241 244 262 266 239 225 209 194 190 180 150 125 149
206 207 210 215 222 202 193 200 245 293 188 204 218 205 223 223 228 230 240 249 250 266 276 286 265 219 229 230 233 249 240 239 236 244 265 268 270 229 239 232 225 226 233 236 218 194 179 168 153 126 125 140 151 167
203 202 204 206 209 202 194 200 244 278 200 211 220 232 233 237 249 266 264 262 261 254 269 223 222 234 229 228 226 261 279 280 279 294 290 284 250 221 211 198 200 191 177 171 161 144 128 116 125 140 154 163 163 167
201 202 202 204 203 202 202 210 232 240 221 228 234 242 252 214 165 152 132 123 138 145 184 187 248 293 268 247 243 259 285 277 255 281 282 200 145 146 152 150 148 144 137 123 121 126 135 142 148 159 165 166 166 163
202 204 203 201 202 205 210 215 227 227 226 232 242 216 180 182 162 142 143 117 95 83 74 283 279 275 274 258 260 250 241 266 279 248 156 142 142 139 137 140 137 121 120 126 132 141 150 153 156 159 166 163 161 161
204 201 203 205 206 206 208 211 216 231 239 235 216 201 189 186 193 197 182 177 52 39 243 235 236 285 276 305 314 318 306 275 136 138 134 130 136 144 147 129 115 118 127 140 145 150 156 160 160 159 157 159 159 165
202 202 201 201 202 200 201 209 211 233 224 204 205 196 198 202 208 202 204 217 226 237 296 294 277 252 276 144 41 38 98 147 142 140 140 141 144 131 118 119 129 136 143 149 156 163 165 163 163 164 164 167 169 172
200 199 198 197 196 195 197 211 211 217 219 209 202 198 197 196 192 195 194 190 192 202 243 256 195 169 160 156 111 101 108 135 151 151 152 148 141 145 146 144 138 132 140 155 166 176 182 180 176 176 177 182 190 191
198 196 197 196 197 200 201 205 201 212 215 206 205 205 208 209 210 209 207 206 208 214 224 205 200 193 183 166 151 141 130 134 142 152 159 166 164 162 168 172 169 168 176 197 206 199 190 188 189 186 191 200 202 201
199 195 196 197 199 202 210 209 203 209 203 211 210 217 225 224 223 226 228 228 230 230 224 211 205 201 187 179 169 160 158 158 161 161 173 186 199 208 212 223 236 235 237 238 221 212 206 199 193 198 210 212 206 213
201 195 194 198 202 205 217 211 208 203 200 199 196 205 218 219 221 221 223 226 229 225 222 219 212 203 200 199 193 186 182 186 192 198 203 211 221 228 235 241 246 243 250 245 228 213 205 200 204 215 220 213 213 222
201 194 191 196 199 198 205 202 201 203 195 193 195 203 213 225 228 226 232 237 239 230 225 221 220 215 210 211 213 212 213 214 211 215 219 220 221 228 241 243 246 246 246 229 216 212 204 205 215 223 219 213 214 219
193 193 200 201 196 206 208 205 201 205 210 202 204 205 222 222 223 230 239 246 236 234 229 226 224 224 222 222 225 227 232 233 231 238 245 241 240 251 266 266 253 240 214 203 192 203 213 218 221 216 212 212 217 222
196 198 200 198 201 204 202 207 211 214 215 210 211 210 222 222 228 237 234 244 235 233 228 223 222 224 227 230 231 230 233 237 239 241 242 243 245 250 251 244 231 216 209 211 213 212 214 213 209 209 210 215 218 229
204 201 204 202 198 203 207 210 213 210 208 209 217 215 220 218 227 233 232 219 208 200 209 218 219 222 226 230 233 233 233 236 238 237 237 235 235 237 236 222 201 194 206 217 222 219 205 202 206 209 214 217 221 232
206 204 206 205 206 208 208 209 210 206 209 208 204 197 200 204 220 227 213 208 211 213 215 217 220 225 228 229 229 228 230 231 233 233 232 234 235 234 233 231 234 213 206 212 218 219 216 211 207 209 215 218 223 230
211 207 210 209 209 210 211 212 208 210 211 207 207 208 214 219 217 207 202 203 204 200 200 209 220 223 224 229 228 226 224 224 227 228 228 229 229 228 225 219 223 218 218 221 220 214 211 210 214 217 217 218 222 229
213 212 215 212 210 210 213 212 217 215 215 216 222 217 218 217 215 211 207 204 202 205 211 217 223 231 224 223 217 214 213 216 220 215 202 205 205 203 204 207 217 220 218 216 221 220 216 216 218 219 217 218 224 226
214 213 214 214 212 215 217 214 214 212 210 210 211 215 216 217 212 210 206 204 205 211 220 225 224 224 221 214 211 210 216 211 208 205 200 193 192 193 195 199 207 217 222 219 219 221 219 216 215 217 219 220 225 224
213 215 212 209 215 212 211 207 203 203 203 208 211 210 207 208 211 209 210 217 226 233 243 242 235 227 226 223 215 202 191 194 201 200 198 198 199 206 209 211 217 224 229 230 230 230 227 221 220 220 221 223 228 224
212 212 206 209 211 203 201 197 199 200 201 213 214 210 210 213 213 214 222 230 235 233 234 238 234 229 224 224 218 209 210 205 198 192 193 198 209 214 215 219 225 225 227 228 229 230 229 226 225 227 226 226 229 225
Height
2965 2968 2970 2973 2973 2973 2975 2976 2977 2977 2977 2977 2977 2977 2978 2980 2983 2984 2983 2989 2987 2982 2981 2987 2991 2995 2999 3000 3000 3003 3006 3004 3005 3005 3006 3003 3002 2999 2999 2997 3002 3003 3006 3003 2997 2999 2997 2986 2991 2990 2990 2988 2988 2992
2961 2963 2965 2965 2965 2967 2968 2968 2968 2968 2968 2969 2969 2969 2970 2971 2972 2975 2971 2976 2980 2976 2971 2978 2980 2984 2988 2992 2995 2997 2995 2996 2994 2994 2995 2995 2993 2991 2989 2984 2992 2989 2994 2991 2990 2977 2978 2987 2985 2985 2986 2984 2983 2989
2956 2957 2957 2959 2960 2961 2961 2961 2961 2961 2962 2961 2962 2963 2963 2964 2964 2964 2963 2966 2968 2968 2966 2966 2967 2976 2979 2981 2985 2984 2984 2986 2988 2990 2988 2986 2983 2982 2979 2979 2979 2979 2984 2979 2978 2960 2966 2969 2979 2978 2977 2977 2979 2983
2950 2950 2952 2953 2955 2955 2955 2955 2955 2956 2955 2956 2957 2957 2957 2957 2957 2955 2954 2955 2958 2962 2960 2950 2962 2962 2969 2972 2973 2974 2972 2978 2979 2980 2977 2975 2973 2971 2970 2971 2968 2971 2969 2966 2959 2952 2959 2959 2956 2967 2971 2970 2968 2977
2944 2945 2947 2949 2949 2949 2949 2949 2950 2949 2949 2950 2951 2950 2950 2949 2949 2948 2947 2946 2949 2956 2951 2950 2952 2956 2959 2961 2960 2962 2963 2965 2967 2969 2967 2964 2963 2963 2957 2955 2945 2960 2964 2961 2937 2944 2950 2938 2949 2961 2963 2963 2967 2975
2938 2940 2942 2944 2943 2943 2943 2944 2944 2943 2944 2944 2943 2942 2941 2941 2940 2939 2938 2939 2940 2946 2948 2945 2947 2947 2950 2953 2954 2953 2956 2957 2958 2957 2955 2953 2953 2955 2945 2937 2930 2947 2951 2947 2927 2934 2934 2934 2952 2953 2956 2958 2963 2969
2934 2936 2938 2938 2938 2938 2938 2939 2938 2939 2938 2937 2936 2935 2932 2930 2930 2930 2930 2931 2935 2941 2942 2943 2939 2939 2943 2945 2945 2946 2948 2947 2949 2948 2945 2942 2943 2945 2936 2920 2914 2933 2932 2932 2929 2925 2916 2912 2930 2945 2950 2953 2957 2961
2930 2932 2933 2933 2933 2933 2934 2934 2934 2934 2933 2931 2931 2928 2925 2921 2917 2915 2923 2927 2932 2935 2938 2936 2936 2937 2937 2938 2939 2939 2940 2941 2939 2938 2934 2931 2935 2934 2912 2907 2914 2917 2917 2909 2906 2905 2908 2924 2926 2936 2941 2947 2951 2954
2925 2928 2928 2928 2929 2929 2930 2930 2931 2930 2928 2927 2926 2924 2922 2919 2915 2914 2919 2926 2930 2934 2931 2929 2932 2934 2930 2932 2933 2933 2933 2934 2933 2929 2923 2923 2923 2911 2904 2906 2915 2915 2910 2902 2903 2911 2914 2919 2927 2932 2937 2942 2945 2948
2922 2923 2924 2925 2925 2926 2926 2928 2928 2926 2925 2925 2925 2925 2923 2920 2919 2922 2925 2926 2928 2927 2925 2923 2927 2927 2927 2927 2927 2929 2926 2924 2920 2917 2918 2908 2900 2898 2902 2906 2908 2903 2897 2899 2901 2907 2913 2918 2924 2928 2932 2935 2939 2941
2917 2919 2920 2921 2923 2923 2925 2926 2926 2924 2923 2924 2924 2923 2923 2922 2924 2925 2925 2925 2926 2923 2918 2917 2920 2921 2921 2922 2922 2922 2918 2915 2912 2912 2908 2900 2887 2890 2896 2898 2901 2897 2898 2903 2905 2907 2912 2917 2921 2924 2926 2929 2932 2934
2912 2914 2917 2918 2920 2921 2923 2923 2923 2923 2923 2923 2923 2923 2924 2925 2925 2925 2922 2922 2920 2917 2913 2911 2912 2914 2915 2917 2917 2916 2913 2910 2903 2901 2901 2894 2892 2891 2895 2893 2891 2894 2898 2901 2902 2907 2911 2916 2919 2920 2921 2924 2928 2932
2907 2910 2912 2915 2916 2918 2920 2920 2921 2921 2921 2922 2923 2924 2924 2924 2922 2920 2918 2916 2914 2911 2910 2909 2909 2910 2910 2913 2914 2912 2908 2906 2903 2898 2890 2886 2886 2887 2888 2889 2890 2894 2899 2901 2903 2906 2908 2911 2914 2917 2919 2923 2928 2934
2903 2906 2908 2910 2912 2915 2917 2918 2919 2918 2919 2921 2921 2921 2920 2918 2916 2915 2914 2912 2910 2907 2907 2907 2907 2908 2908 2908 2907 2905 2905 2903 2900 2896 2891 2885 2884 2885 2885 2888 2892 2895 2898 2901 2902 2903 2906 2909 2912 2916 2922 2926 2931 2935
2899 2902 2904 2906 2909 2911 2914 2915 2916 2916 2917 2918 2918 2915 2913 2912 2912 2910 2908 2907 2906 2905 2904 2905 2907 2908 2907 2907 2905 2904 2901 2897 2895 2893 2891 2886 2885 2886 2888 2891 2894 2897 2898 2900 2903 2904 2907 2912 2916 2920 2925 2930 2933 2936
2895 2898 2901 2903 2905 2908 2910 2913 2913 2914 2914 2914 2912 2910 2909 2909 2908 2908 2907 2907 2906 2906 2906 2906 2906 2907 2906 2906 2905 2903 2902 2900 2897 2894 2891 2888 2888 2891 2893 2896 2898 2899 2900 2903 2906 2910 2914 2918 2921 2924 2927 2930 2934 2937
2891 2894 2897 2900 2902 2904 2907 2909 2910 2911 2910 2908 2906 2906 2908 2908 2908 2909 2909 2908 2908 2908 2907 2908 2907 2907 2905 2905 2904 2902 2900 2897 2895 2894 2892 2893 2894 2897 2898 2900 2901 2903 2907 2911 2913 2916 2918 2921 2924 2927 2930 2932 2935 2937
2886 2889 2892 2896 2898 2900 2903 2905 2906 2906 2905 2904 2904 2904 2905 2906 2908 2908 2908 2908 2908 2908 2908 2908 2906 2906 2905 2903 2902 2899 2897 2896 2894 2895 2896 2899 2901 2902 2904 2905 2907 2910 2913 2916 2918 2919 2922 2924 2926 2929 2931 2934 2936 2938
2881 2885 2888 2891 2894 2897 2899 2901 2902 2902 2901 2902 2903 2903 2904 2905 2906 2907 2907 2907 2907 2907 2907 2906 2906 2906 2904 2902 2901 2899 2898 2898 2898 2899 2901 2903 2905 2907 2909 2911 2913 2915 2918 2919 2921 2922 2924 2927 2929 2931 2933 2935 2936 2937
2877 2880 2884 2887 2890 2893 2895 2897 2897 2899 2898 2900 2901 2902 2903 2903 2904 2905 2905 2906 2906 2907 2907 2906 2905 2904 2904 2904 2903 2902 2901 2902 2904 2905 2906 2908 2909 2912 2914 2916 2917 2919 2920 2922 2923 2925 2927 2929 2930 2932 2934 2935 2936 2937
2873 2876 2880 2883 2886 2889 2891 2891 2893 2894 2895 2897 2898 2900 2901 2902 2903 2904 2904 2905 2906 2906 2905 2905 2905 2905 2905 2905 2905 2905 2905 2906 2908 2910 2911 2912 2914 2916 2917 2918 2920 2921 2922 2923 2925 2926 2927 2929 2931 2933 2934 2935 2936 2937
2869 2872 2875 2878 2881 2884 2886 2887 2889 2890 2893 2893 2895 2896 2897 2899 2900 2901 2902 2903 2903 2903 2904 2904 2904 2905 2906 2906 2907 2908 2908 2909 2911 2912 2914 2915 2916 2918 2919 2920 2921 2922 2922 2923 2924 2925 2927 2928 2930 2932 2933 2934 2935 2936
2866 2869 2872 2875 2878 2880 2882 2883 2886 2886 2888 2889 2891 2893 2894 2895 2896 2898 2899 2899 2900 2901 2902 2903 2903 2904 2905 2906 2907 2909 2910 2911 2912 2913 2914 2916 2917 2917 2918 2919 2920 2920 2921 2921 2922 2924 2925 2928 2929 2931 2932 2933 2934 2935
2863 2865 2868 2870 2872 2873 2875 2876 2879 2882 2884 2886 2888 2889 2890 2891 2893 2894 2894 2895 2896 2897 2898 2899 2901 2902 2903 2904 2906 2907 2909 2910 2911 2912 2913 2915 2916 2916 2917 2917 2917 2918 2918 2919 2920 2922 2924 2926 2928 2929 2930 2931 2932 2933
2860 2863 2864 2863 2864 2868 2869 2871 2873 2877 2878 2881 2884 2885 2885 2887 2889 2889 2889 2889 2891 2891 2893 2894 2896 2898 2900 2901 2902 2904 2906 2907 2909 2910 2911 2912 2913 2914 2915 2915 2915 2916 2917 2918 2920 2921 2923 2925 2926 2928 2929 2930 2930 2931
2853 2854 2856 2856 2859 2862 2863 2866 2868 2871 2873 2876 2878 2880 2881 2883 2885 2884 2883 2883 2885 2886 2888 2889 2890 2892 2894 2896 2897 2899 2901 2903 2905 2907 2908 2910 2911 2912 2912 2913 2913 2915 2916 2917 2918 2919 2921 2922 2924 2925 2927 2928 2929 2929
2845 2846 2848 2850 2852 2855 2858 2860 2863 2866 2868 2870 2872 2875 2877 2879 2878 2877 2878 2879 2881 2883 2884 2885 2886 2887 2888 2889 2891 2893 2895 2897 2900 2903 2904 2906 2907 2909 2910 2911 2912 2913 2915 2916 2917 2918 2919 2920 2922 2923 2925 2926 2927 2928
2838 2841 2844 2847 2849 2851 2854 2856 2859 2861 2863 2865 2868 2870 2872 2872 2872 2873 2874 2876 2878 2879 2880 2881 2882 2883 2884 2885 2886 2888 2890 2892 2894 2897 2899 2901 2903 2905 2907 2908 2910 2911 2912 2913 2915 2916 2917 2919 2920 2922 2923 2925 2926 2927
2834 2837 2840 2842 2844 2847 2850 2852 2854 2856 2858 2861 2862 2864 2865 2867 2869 2870 2872 2874 2875 2877 2878 2879 2880 2880 2881 2882 2883 2884 2886 2888 2891 2893 2895 2897 2900 2902 2904 2906 2908 2910 2911 2912 2913 2914 2915 2917 2919 2920 2922 2923 2924 2925
2830 2833 2835 2837 2840 2842 2845 2847 2849 2852 2854 2856 2858 2861 2862 2864 2866 2868 2870 2872 2873 2875 2876 2877 2877 2878 2878 2879 2879 2880 2882 2884 2887 2890 2892 2894 2897 2899 2902 2904 2906 2908 2909 2910 2911 2912 2914 2915 2917 2918 2920 2921 2922 2923
2825 2828 2831 2833 2835 2838 2841 2844 2846 2849 2851 2852 2855 2857 2859 2861 2863 2865 2867 2869 2871 2873 2874 2875 2875 2875 2876 2877 2877 2878 2880 2881 2883 2886 2888 2890 2893 2895 2898 2901 2903 2905 2907 2908 2909 2910 2911 2913 2914 2916 2917 2919 2920 2921
2820 2823 2826 2828 2831 2834 2837 2840 2842 2845 2847 2849 2851 2854 2856 2858 2860 2863 2865 2867 2868 2870 2871 2872 2872 2873 2874 2874 2875 2875 2877 2879 2880 2883 2886 2888 2891 2894 2896 2898 2900 2902 2904 2905 2906 2908 2909 2910 2912 2913 2914 2916 2917 2918
2815 2818 2821 2824 2827 2830 2834 2837 2839 2842 2845 2846 2848 2851 2853 2855 2857 2860 2862 2863 2865 2866 2867 2868 2869 2870 2871 2872 2873 2874 2875 2876 2878 2880 2883 2886 2889 2891 2893 2894 2896 2898 2900 2901 2903 2905 2906 2907 2909 2910 2911 2913 2914 2915